Location: Hastringsfeld
(50.9620°N, 10.4787°E)
Time: 19:06:42
(UTC+00:00)

Cosmos 2333 Rocket - Pass Details

Date: 26 September 2023
Orbit: 837 x 864 km, 70.8° (Epoch: 08 December)

Event Time Altitude Azimuth Distance (km) Brightness Sun altitude
Rises 02:30:30 0° 330° (NNW) 3,422 5.4 -24.7°
Reaches altitude 10° 02:33:01 10° 335° (NNW) 2,487 4.7 -24.4°
Maximum altitude 02:38:39 57° 54° (NE) 1,001 2.8 -23.6°
Drops below altitude 10° 02:44:17 10° 133° (SE) 2,490 4.8 -22.8°
Sets 02:46:48 0° 138° (SE) 3,426 5.5 -22.5°
